カタログに戻る

IUS R/B(2)

運用中MEO
NORAD 20357·ROCKET BODY·🇺🇸 United States

打ち上げ Nov 23, 1989 から Cape Canaveral Space Force Station

Loading…

次のパス (今後24時間)

TLE

最新Source: Space-Track

元期: Sep 11, 2026, 18:11 UTC

1 20357U 89090D   26254.75769477 -.00000161  00000-0  00000-0 0  9993
2 20357  17.2036 341.8656 0334325 104.6032 259.1351  0.99515800 26222

AllMySatでIUS R/B(2)をリアルタイム追跡

Download on the App Store